| time (UTC) | temp F | wind direction | speed knots | gust knots | rain 1hr in | rain 24hr in | rain mn in | humidity % | barometer mb |
| 20260506061511 | 44 | 111 | 1.7 | 8.7 | 0.00 | 0.00 | 0.00 | 100 | 1009.6 |
| 20260506044628 | 39 | 194 | 0.0 | 1.7 | 0.00 | 0.00 | 0.00 | 100 | 1010.1 |
| 20260506043052 | 39 | 315 | 0.0 | 0.9 | 0.00 | 0.00 | 0.00 | 100 | 1010.1 |
| 20260506041550 | 38 | 315 | 0.0 | 0.9 | 0.00 | 0.00 | 0.00 | 100 | 1010.0 |
| 20260506040048 | 38 | 323 | 0.0 | 2.6 | 0.00 | 0.00 | 0.00 | 100 | 1009.8 |
| 20260506034548 | 37 | 331 | 0.0 | 1.7 | 0.00 | 0.00 | 0.00 | 100 | 1009.9 |
| 20260506033045 | 37 | 333 | 0.0 | 3.5 | 0.00 | 0.00 | 0.00 | 100 | 1009.8 |
| 20260506031543 | 37 | 331 | 1.7 | 4.3 | 0.00 | 0.00 | 0.00 | 100 | 1009.8 |
| 20260506030043 | 37 | 317 | 0.9 | 3.5 | 0.00 | 0.00 | 0.00 | 100 | 1009.9 |
| 20260506024534 | 37 | 325 | 1.7 | 4.3 | 0.00 | 0.00 | 0.00 | 100 | 1009.8 |
| 20260506023038 | 37 | 338 | 1.7 | 3.5 | 0.00 | 0.00 | 0.00 | 100 | 1009.9 |
| 20260506021533 | 37 | 338 | 2.6 | 4.3 | 0.00 | 0.00 | 0.00 | 100 | 1010.1 |
| 20260506020031 | 37 | 338 | 2.6 | 4.3 | 0.00 | 0.00 | 0.00 | 100 | 1010.2 |
| 20260506014524 | 38 | 338 | 2.6 | 4.3 | 0.00 | 0.00 | 0.00 | 100 | 1010.1 |
| 20260506013021 | 38 | 337 | 2.6 | 4.3 | 0.00 | 0.00 | 0.00 | 100 | 1010.5 |
| 20260506011520 | 38 | 323 | 0.0 | 2.6 | 0.00 | 0.00 | 0.00 | 100 | 1010.4 |
| 20260506010038 | 38 | 322 | 0.9 | 3.5 | 0.00 | 0.00 | 0.00 | 100 | 1010.4 |
| 20260506004517 | 39 | 334 | 0.9 | 4.3 | 0.00 | 0.00 | 0.00 | 100 | 1010.4 |
| 20260506003017 | 39 | 334 | 1.7 | 4.3 | 0.00 | 0.00 | 0.00 | 100 | 1010.4 |
| 20260506001515 | 39 | 333 | 0.9 | 4.3 | 0.00 | 0.00 | 0.00 | 100 | 1010.4 |
| 20260506000013 | 39 | 328 | 1.7 | 5.2 | 0.00 | 0.00 | 0.00 | 100 | 1010.4 |
| 20260505234530 | 39 | 327 | 2.6 | 5.2 | 0.00 | 0.00 | 0.00 | 100 | 1010.4 |
| 20260505233010 | 40 | 19 | 2.6 | 4.3 | 0.00 | 0.00 | 0.00 | 100 | 1010.4 |
| 20260505231508 | 40 | 323 | 0.9 | 4.3 | 0.00 | 0.00 | 0.00 | 100 | 1010.3 |
| 20260505230008 | 40 | 322 | 2.6 | 5.2 | 0.00 | 0.00 | 0.00 | 100 | 1010.3 |
| 20260505224505 | 41 | 331 | 1.7 | 5.2 | 0.00 | 0.00 | 0.00 | 100 | 1010.4 |
| 20260505223001 | 41 | 336 | 2.6 | 5.2 | 0.00 | 0.00 | 0.00 | 100 | 1010.4 |
| 20260505221559 | 42 | 337 | 2.6 | 5.2 | 0.00 | 0.00 | 0.00 | 100 | 1010.6 |
| 20260505220056 | 42 | 331 | 3.5 | 5.2 | 0.00 | 0.00 | 0.00 | 100 | 1010.6 |
| 20260505214623 | 42 | 330 | 2.6 | 5.2 | 0.00 | 0.00 | 0.00 | 100 | 1010.6 |
| 20260505213103 | 42 | 335 | 2.6 | 5.2 | 0.00 | 0.00 | 0.00 | 100 | 1010.8 |
| 20260505211555 | 43 | 326 | 2.6 | 4.3 | 0.00 | 0.00 | 0.00 | 59 | 1010.8 |
| 20260505210059 | 43 | 338 | 1.7 | 5.2 | 0.00 | 0.00 | 0.00 | 39 | 1010.8 |
| 20260505204603 | 43 | 355 | 2.6 | 5.2 | 0.00 | 0.00 | 0.00 | 30 | 1010.6 |
| 20260505203056 | 44 | 327 | 2.6 | 5.2 | 0.00 | 0.00 | 0.00 | 22 | 1010.6 |
| 20260505201555 | 44 | 332 | 0.9 | 3.5 | 0.00 | 0.00 | 0.00 | 14 | 1010.5 |
| 20260505200104 | 45 | 344 | 1.7 | 5.2 | 0.00 | 0.00 | 0.00 | 12 | 1010.5 |
| 20260505194554 | 45 | 329 | 1.7 | 3.5 | 0.00 | 0.00 | 0.00 | 10 | 1010.5 |
| 20260505193050 | 45 | 334 | 0.9 | 4.3 | 0.00 | 0.00 | 0.00 | 7 | 1010.5 |
| 20260505191539 | 46 | 327 | 0.9 | 2.6 | 0.00 | 0.00 | 0.00 | 8 | 1010.4 |
| 20260505190037 | 47 | 307 | 0.0 | 2.6 | 0.00 | 0.00 | 0.00 | 16 | 1010.2 |
| 20260505184531 | 48 | 331 | 0.9 | 2.6 | 0.00 | 0.00 | 0.00 | 16 | 1010.2 |
| 20260505183027 | 49 | 311 | 0.9 | 4.3 | 0.00 | 0.00 | 0.00 | 5 | 1010.1 |
| 20260505181521 | 50 | 317 | 2.6 | 8.7 | 0.00 | 0.00 | 0.00 | 1 | 1010.1 |
| 20260505180032 | 51 | 288 | 5.2 | 13.9 | 0.00 | 0.00 | 0.00 | 1 | 1010.1 |
| 20260505174523 | 51 | 296 | 3.5 | 9.6 | 0.00 | 0.00 | 0.00 | 3 | 1010.0 |
| 20260505173012 | 52 | 311 | 3.5 | 10.4 | 0.00 | 0.00 | 0.00 | 12 | 1009.8 |
| 20260505171504 | 52 | 313 | 4.3 | 10.4 | 0.00 | 0.00 | 0.00 | 6 | 1009.8 |
| 20260505170059 | 53 | 315 | 4.3 | 11.3 | 0.00 | 0.00 | 0.00 | 4 | 1009.8 |
| 20260505164556 | 53 | 309 | 3.5 | 11.3 | 0.00 | 0.00 | 0.00 | 1 | 1009.7 |
| 20260505163054 | 54 | 317 | 5.2 | 12.2 | 0.00 | 0.00 | 0.00 | 1 | 1009.6 |
| 20260505161549 | 56 | 311 | 4.3 | 13.9 | 0.00 | 0.00 | 0.00 | 1 | 1009.5 |
| 20260505153034 | 58 | 299 | 3.5 | 8.7 | 0.00 | 0.00 | 0.00 | 8 | 1009.6 |
| 20260505151532 | 58 | 311 | 5.2 | 8.7 | 0.00 | 0.00 | 0.00 | 8 | 1009.6 |
| 20260505124550 | 59 | 267 | 3.5 | 10.4 | 0.00 | 0.00 | 0.00 | 43 | 1009.9 |
| 20260505123059 | 59 | 292 | 2.6 | 8.7 | 0.00 | 0.00 | 0.00 | 56 | 1010.1 |
| 20260505121546 | 58 | 319 | 1.7 | 5.2 | 0.00 | 0.00 | 0.00 | 100 | 1010.0 |
| 20260505120046 | 59 | 317 | 3.5 | 9.6 | 0.00 | 0.00 | 0.00 | 100 | 1010.0 |
| 20260505114544 | 59 | 298 | 1.7 | 7.0 | 0.00 | 0.00 | 0.00 | 100 | 1010.0 |
| 20260505113043 | 57 | 305 | 3.5 | 13.0 | 0.00 | 0.00 | 0.00 | 100 | 1010.2 |
| 20260505111543 | 56 | 299 | 0.9 | 7.8 | 0.00 | 0.00 | 0.00 | 100 | 1010.1 |
| 20260505101537 | 56 | 271 | 0.9 | 4.3 | 0.00 | 0.00 | 0.00 | 100 | 1010.5 |
| 20260505100035 | 56 | 286 | 1.7 | 6.1 | 0.00 | 0.00 | 0.00 | 100 | 1010.6 |
| 20260505094533 | 55 | 259 | 0.9 | 4.3 | 0.00 | 0.00 | 0.00 | 100 | 1010.6 |
| 20260505093037 | 55 | 206 | 0.9 | 4.3 | 0.00 | 0.00 | 0.00 | 100 | 1010.6 |
| 20260505091536 | 53 | 297 | 0.9 | 6.1 | 0.00 | 0.00 | 0.00 | 100 | 1010.8 |
| 20260505090030 | 52 | 265 | 1.7 | 4.3 | 0.00 | 0.00 | 0.00 | 100 | 1010.7 |
| 20260505084531 | 53 | 313 | 2.6 | 5.2 | 0.00 | 0.00 | 0.00 | 100 | 1010.7 |
| 20260505083033 | 54 | 304 | 0.9 | 4.3 | 0.00 | 0.00 | 0.00 | 100 | 1010.8 |
| 20260505081525 | 52 | 286 | 1.7 | 4.3 | 0.00 | 0.00 | 0.00 | 100 | 1010.8 |
| 20260505080023 | 51 | 307 | 2.6 | 5.2 | 0.00 | 0.00 | 0.00 | 100 | 1010.7 |
| 20260505074521 | 49 | 292 | 1.7 | 6.1 | 0.00 | 0.00 | 0.00 | 100 | 1010.7 |
| 20260505073021 | 50 | 302 | 1.7 | 5.2 | 0.00 | 0.00 | 0.00 | 100 | 1010.7 |
| 20260505071519 | 49 | 302 | 1.7 | 4.3 | 0.00 | 0.00 | 0.00 | 100 | 1010.6 |